Location: Azul
(36.7830°S, 59.8500°W)
Time: 13:14:54
(UTC-03:00)

ISS - Pass Details

Date: 20 August 2017
Orbit: 401 x 408 km, 51.6° (Epoch: 19 August)

Event Time Altitude Azimuth Distance (km) Brightness Sun altitude
Exits shadow 06:24:58 31° 279° (W) 745 -3.1 -14.8°
Maximum altitude 06:25:46 37° 313° (NW) 659 -3.1 -14.7°
Drops below altitude 10° 06:28:52 10° 23° (NNE) 1,475 -0.6 -14.1°
Sets 06:31:01 0° 31° (NNE) 2,328 0.6 -13.6°
